GW2326 Weather Reports


time (UTC)temp
F
wind
direction
speed
knots
gust
knots
rain 1hr
in
rain 24hr
in
rain mn
in
humidity
%
barometer
mb
20260510120552 68 189 5.2 8.7 0.00 0.00 0.00 85 1012.5
20260510120054 68 188 6.1 9.6 0.00 0.00 0.00 85 1012.4
20260510115548 68 199 6.1 9.6 0.00 0.00 0.00 85 1012.3
20260510115052 68 198 5.2 7.8 0.00 0.00 0.00 84 1012.2
20260510114554 68 200 5.2 7.0 0.00 0.00 0.00 84 1012.1
20260510114050 68 200 5.2 7.0 0.00 0.00 0.00 84 1012.1
20260510113548 68 222 5.2 7.0 0.00 0.00 0.00 84 1012.1
20260510113105 68 198 5.2 7.8 0.00 0.00 0.00 84 1012.1
20260510112551 68 206 5.2 7.8 0.00 0.00 0.00 84 1012.1
20260510112053 68 213 6.1 7.8 0.00 0.00 0.00 84 1012.0
20260510111556 68 219 5.2 9.6 0.00 0.00 0.00 84 1012.0
20260510111049 68 217 6.1 9.6 0.00 0.00 0.00 84 1012.1
20260510110551 68 189 5.2 7.0 0.00 0.00 0.00 84 1012.0
20260510110058 67 207 4.3 7.0 0.00 0.00 0.00 85 1012.0
20260510105548 67 223 4.3 6.1 0.00 0.00 0.00 84 1012.0
20260510105052 67 220 4.3 6.1 0.00 0.00 0.00 84 1011.9
20260510104552 67 220 4.3 6.1 0.00 0.00 0.00 83 1011.9
20260510104052 67 206 4.3 6.1 0.00 0.00 0.00 83 1011.9
20260510103548 68 229 4.3 7.0 0.00 0.00 0.00 83 1011.9
20260510103103 68 224 4.3 7.0 0.00 0.00 0.00 83 1011.8
20260510102548 68 218 5.2 7.0 0.00 0.00 0.00 82 1011.8
20260510102049 68 209 5.2 7.0 0.00 0.00 0.00 82 1011.8
20260510101558 67 223 4.3 6.1 0.00 0.00 0.00 83 1011.7
20260510101050 67 217 4.3 6.1 0.00 0.00 0.00 83 1011.7
20260510100550 67 211 3.5 6.1 0.00 0.00 0.00 83 1011.7
20260510095549 67 225 5.2 9.6 0.00 0.00 0.00 82 1011.6
20260510095049 67 227 7.0 9.6 0.00 0.00 0.00 83 1011.6
20260510094559 67 229 6.1 8.7 0.00 0.00 0.00 82 1011.6
20260510094050 67 225 6.1 7.8 0.00 0.00 0.00 82 1011.5
20260510093548 67 230 6.1 7.8 0.00 0.00 0.00 82 1011.5
20260510093057 67 224 4.3 6.1 0.00 0.00 0.00 81 1011.5
20260510092550 67 232 4.3 7.0 0.00 0.00 0.00 81 1011.5
20260510092049 67 209 5.2 7.8 0.00 0.00 0.00 81 1011.5
20260510091557 68 211 5.2 8.7 0.00 0.00 0.00 81 1011.5
20260510091048 68 216 6.1 9.6 0.00 0.00 0.00 81 1011.5
20260510090550 68 202 7.0 9.6 0.00 0.00 0.00 80 1011.4
20260510090056 68 207 7.0 10.4 0.00 0.00 0.00 80 1011.5
20260510085553 68 217 7.8 10.4 0.00 0.00 0.00 80 1011.3
20260510085049 68 212 7.8 10.4 0.00 0.00 0.00 80 1011.4
20260510084550 68 223 7.8 10.4 0.00 0.00 0.00 80 1011.2
20260510084046 69 213 7.0 10.4 0.00 0.00 0.00 79 1011.2
20260510083549 69 212 6.1 9.6 0.00 0.00 0.00 80 1011.2
20260510083051 69 208 6.1 8.7 0.00 0.00 0.00 80 1011.2
20260510082549 69 200 6.1 7.8 0.00 0.00 0.00 80 1011.2
20260510082049 69 210 6.1 7.8 0.00 0.00 0.00 80 1011.3
20260510081552 69 219 5.2 7.8 0.00 0.00 0.00 79 1011.2
20260510081050 69 190 5.2 7.8 0.00 0.00 0.00 79 1011.3
20260510080549 69 208 6.1 11.3 0.00 0.00 0.00 79 1011.4
20260510075551 69 200 5.2 7.8 0.00 0.00 0.00 78 1011.4
20260510075049 69 200 6.1 7.8 0.00 0.00 0.00 78 1011.5
20260510074604 69 202 6.1 7.8 0.00 0.00 0.00 78 1011.5
20260510074049 69 200 5.2 7.8 0.00 0.00 0.00 79 1011.5
20260510073547 69 178 5.2 7.8 0.00 0.00 0.00 79 1011.5
20260510073111 70 193 4.3 7.0 0.00 0.00 0.00 78 1011.5
20260510072549 70 189 4.3 7.0 0.00 0.00 0.00 78 1011.5
20260510072049 70 198 5.2 7.8 0.00 0.00 0.00 78 1011.6
20260510071552 70 184 5.2 7.8 0.00 0.00 0.00 78 1011.6
20260510071049 70 207 5.2 7.0 0.00 0.00 0.00 77 1011.6
20260510070549 70 208 4.3 7.0 0.00 0.00 0.00 77 1011.8
20260510070059 70 209 4.3 7.8 0.00 0.00 0.00 77 1011.9
20260510065547 71 223 4.3 7.8 0.00 0.00 0.00 76 1011.8
20260510065046 71 192 4.3 7.8 0.00 0.00 0.00 76 1011.9
20260510064626 71 219 4.3 7.8 0.00 0.00 0.00 75 1011.9
20260510064048 71 219 5.2 8.7 0.00 0.00 0.00 75 1011.9
20260510063547 71 185 5.2 8.7 0.00 0.00 0.00 75 1012.0
20260510063053 71 210 5.2 8.7 0.00 0.00 0.00 75 1012.0
20260510062548 71 232 5.2 7.8 0.00 0.00 0.00 76 1012.0
20260510062048 71 218 4.3 7.8 0.00 0.00 0.00 76 1012.1
20260510061556 71 214 4.3 6.1 0.00 0.00 0.00 76 1012.2
20260510061050 71 182 4.3 8.7 0.00 0.00 0.00 75 1012.3
20260510060552 71 185 4.3 8.7 0.00 0.00 0.00 75 1012.3
20260510060056 71 211 4.3 7.0 0.00 0.00 0.00 76 1012.2
20260510055549 71 202 4.3 7.0 0.00 0.00 0.00 76 1012.3
20260510055049 71 221 4.3 6.1 0.00 0.00 0.00 76 1012.4
20260510054552 71 176 4.3 6.1 0.00 0.00 0.00 76 1012.3
20260510054048 72 206 4.3 7.0 0.00 0.00 0.00 75 1012.3
20260510053546 72 203 5.2 7.0 0.00 0.00 0.00 74 1012.3
20260510053054 72 196 4.3 7.0 0.00 0.00 0.00 73 1012.2
20260510052548 72 217 5.2 7.0 0.00 0.00 0.00 73 1012.1
20260510052048 72 170 5.2 7.0 0.00 0.00 0.00 72 1012.2
20260510051553 72 202 4.3 7.8 0.00 0.00 0.00 72 1012.2
20260510051048 73 198 5.2 7.8 0.00 0.00 0.00 72 1012.1
20260510050549 73 192 5.2 7.0 0.00 0.00 0.00 72 1012.1
20260510050053 73 208 4.3 7.0 0.00 0.00 0.00 72 1012.1
20260510045550 73 209 3.5 7.0 0.00 0.00 0.00 71 1012.2
20260510045050 73 205 3.5 7.0 0.00 0.00 0.00 71 1012.2
20260510044551 73 199 4.3 7.0 0.00 0.00 0.00 71 1012.2
20260510044047 73 209 4.3 7.0 0.00 0.00 0.00 70 1012.2
20260510043549 74 201 4.3 7.0 0.00 0.00 0.00 70 1012.2
20260510043058 74 217 4.3 5.2 0.00 0.00 0.00 69 1012.3
20260510042549 74 222 4.3 7.8 0.00 0.00 0.00 68 1012.4
20260510042048 74 200 4.3 7.8 0.00 0.00 0.00 67 1012.3
20260510041557 75 195 3.5 7.0 0.00 0.00 0.00 66 1012.4
20260510041048 75 197 3.5 6.1 0.00 0.00 0.00 65 1012.4
20260510040547 75 181 3.5 7.0 0.00 0.00 0.00 65 1012.3
20260510040054 76 211 4.3 8.7 0.00 0.00 0.00 64 1012.1
20260510035548 76 191 5.2 9.6 0.00 0.00 0.00 63 1012.1
20260510035047 76 171 6.1 9.6 0.00 0.00 0.00 63 1012.1
20260510034618 77 162 7.0 9.6 0.00 0.00 0.00 62 1012.1
20260510034047 77 183 7.8 9.6 0.00 0.00 0.00 61 1012.1
20260510033549 77 172 7.8 9.6 0.00 0.00 0.00 61 1012.1
20260510033058 77 180 7.8 12.2 0.00 0.00 0.00 60 1012.0
20260510032549 77 170 7.8 12.2 0.00 0.00 0.00 59 1012.1
20260510032048 78 169 8.7 12.2 0.00 0.00 0.00 58 1012.0
20260510031553 78 173 7.8 10.4 0.00 0.00 0.00 57 1012.0
20260510031048 78 163 7.8 10.4 0.00 0.00 0.00 56 1012.0
20260510030547 79 174 7.8 10.4 0.00 0.00 0.00 56 1011.9
20260510030110 79 180 7.8 10.4 0.00 0.00 0.00 56 1011.9
20260510025546 79 169 7.8 10.4 0.00 0.00 0.00 56 1011.9
20260510025048 79 178 7.0 9.6 0.00 0.00 0.00 56 1011.8
20260510024559 79 170 7.0 9.6 0.00 0.00 0.00 55 1011.7
20260510024049 79 179 7.0 9.6 0.00 0.00 0.00 54 1011.7
20260510023548 80 173 7.0 9.6 0.00 0.00 0.00 53 1011.6
20260510023056 80 167 7.0 8.7 0.00 0.00 0.00 53 1011.7
20260510022552 80 169 6.1 8.7 0.00 0.00 0.00 52 1011.7
20260510022050 81 168 6.1 9.6 0.00 0.00 0.00 51 1011.6
20260510021604 81 173 7.0 9.6 0.00 0.00 0.00 50 1011.4
20260510021049 81 165 7.0 9.6 0.00 0.00 0.00 50 1011.4
20260510020550 82 174 7.0 8.7 0.00 0.00 0.00 49 1011.4
20260510020053 82 169 7.0 8.7 0.00 0.00 0.00 48 1011.4
20260510015549 82 170 5.2 7.8 0.00 0.00 0.00 47 1011.4
20260510015049 83 169 5.2 7.8 0.00 0.00 0.00 46 1011.3
20260510014600 83 171 5.2 7.8 0.00 0.00 0.00 45 1011.2
20260510014049 84 174 4.3 7.0 0.00 0.00 0.00 45 1011.2
20260510013552 84 202 3.5 6.1 0.00 0.00 0.00 44 1011.0
20260510013103 85 202 4.3 6.1 0.00 0.00 0.00 43 1010.9
20260510012549 85 187 4.3 7.0 0.00 0.00 0.00 42 1010.8
20260510012046 86 183 4.3 7.8 0.00 0.00 0.00 41 1010.7
20260510011556 86 181 5.2 7.8 0.00 0.00 0.00 41 1010.7
20260510011050 87 192 5.2 7.0 0.00 0.00 0.00 40 1010.7
20260510010549 87 196 4.3 8.7 0.00 0.00 0.00 38 1010.7
20260510010055 87 182 6.1 10.4 0.00 0.00 0.00 37 1010.8
20260510005549 88 159 6.1 10.4 0.00 0.00 0.00 37 1010.7
20260510005049 88 161 6.1 13.9 0.00 0.00 0.00 36 1010.7
20260510004552 88 196 7.8 13.9 0.00 0.00 0.00 36 1010.7
20260510004049 88 174 7.8 13.0 0.00 0.00 0.00 37 1010.6
20260510003549 88 174 7.0 10.4 0.00 0.00 0.00 37 1010.7
20260510003104 89 198 7.0 13.0 0.00 0.00 0.00 38 1010.6
20260510002548 89 214 8.7 13.0 0.00 0.00 0.00 38 1010.6
20260510002048 89 198 7.0 10.4 0.00 0.00 0.00 38 1010.7
20260510001554 89 246 7.0 10.4 0.00 0.00 0.00 38 1010.6
20260510001049 89 223 6.1 10.4 0.00 0.00 0.00 38 1010.7
20260510000552 89 197 7.0 13.0 0.00 0.00 0.00 38 1010.6
20260510000126 89 230 7.8 13.0 0.00 0.00 0.00 37 1010.5
20260509235549 90 226 7.0 13.0 0.00 0.00 0.00 36 1010.5
20260509235047 90 179 2.6 10.4 0.00 0.00 0.00 37 1010.4
20260509234552 89 221 6.1 10.4 0.00 0.00 0.00 38 1010.4
20260509234050 90 197 6.1 12.2 0.00 0.00 0.00 38 1010.4
20260509233548 90 238 7.0 13.9 0.00 0.00 0.00 38 1010.4
20260509233054 90 208 4.3 13.9 0.00 0.00 0.00 37 1010.5
20260509232550 90 225 6.1 11.3 0.00 0.00 0.00 37 1010.6
20260509232049 90 227 7.0 11.3 0.00 0.00 0.00 37 1010.5
20260509231559 90 225 5.2 11.3 0.00 0.00 0.00 37 1010.5
20260509231048 90 236 6.1 12.2 0.00 0.00 0.00 37 1010.6
20260509230549 90 219 8.7 12.2 0.00 0.00 0.00 37 1010.5
20260509230057 90 190 3.5 13.0 0.00 0.00 0.00 37 1010.6
20260509225550 90 200 4.3 13.0 0.00 0.00 0.00 36 1010.7
20260509225049 90 150 7.8 13.0 0.00 0.00 0.00 37 1010.6
20260509224556 90 195 7.8 13.0 0.00 0.00 0.00 37 1010.6
20260509224049 90 215 7.8 13.0 0.00 0.00 0.00 35 1010.6
20260509223550 90 188 5.2 10.4 0.00 0.00 0.00 34 1010.5
20260509223103 90 224 4.3 13.0 0.00 0.00 0.00 35 1010.4
20260509222549 90 236 6.1 13.9 0.00 0.00 0.00 34 1010.4
20260509222049 90 163 7.8 13.9 0.00 0.00 0.00 35 1010.4
20260509221604 90 230 6.1 13.0 0.00 0.00 0.00 36 1010.4
20260509221049 90 182 7.0 13.0 0.00 0.00 0.00 37 1010.5
20260509220549 90 212 7.8 13.0 0.00 0.00 0.00 37 1010.5
20260509220056 90 215 6.1 14.8 0.00 0.00 0.00 35 1010.5
20260509215549 90 232 8.7 14.8 0.00 0.00 0.00 35 1010.6
20260509215053 90 229 6.1 14.8 0.00 0.00 0.00 36 1010.6
20260509214602 90 201 6.1 8.7 0.00 0.00 0.00 36 1010.7
20260509214048 90 0 2.6 9.6 0.00 0.00 0.00 37 1010.6
20260509213549 90 217 5.2 12.2 0.00 0.00 0.00 35 1011.0
20260509213053 90 242 7.0 13.9 0.00 0.00 0.00 35 1011.0
20260509212549 89 234 5.2 14.8 0.00 0.00 0.00 38 1011.1
20260509212049 89 155 7.0 14.8 0.00 0.00 0.00 38 1011.2
20260509211553 90 231 8.7 14.8 0.00 0.00 0.00 37 1011.3
20260509211047 89 240 4.3 12.2 0.00 0.00 0.00 38 1011.3
20260509210549 90 226 7.8 12.2 0.00 0.00 0.00 37 1011.4
20260509210051 89 188 4.3 13.9 0.00 0.00 0.00 39 1011.5
20260509205550 89 230 7.8 13.9 0.00 0.00 0.00 39 1011.5
20260509205049 89 161 6.1 13.9 0.00 0.00 0.00 39 1011.6
20260509204553 89 239 7.8 13.9 0.00 0.00 0.00 39 1011.7
20260509204049 89 171 3.5 14.8 0.00 0.00 0.00 38 1011.6
20260509203552 89 161 7.0 18.2 0.00 0.00 0.00 36 1011.8
20260509203055 89 167 10.4 18.2 0.00 0.00 0.00 38 1011.9
20260509202549 89 170 7.8 13.9 0.00 0.00 0.00 39 1011.9
20260509202050 88 239 3.5 14.8 0.00 0.00 0.00 37 1012.0
20260509201554 88 201 6.1 14.8 0.00 0.00 0.00 38 1012.2
20260509201049 88 180 8.7 17.4 0.00 0.00 0.00 38 1012.4
20260509200547 88 165 7.0 17.4 0.00 0.00 0.00 37 1012.3
20260509200108 88 215 9.6 17.4 0.00 0.00 0.00 43 1012.3
20260509195547 88 171 5.2 15.6 0.00 0.00 0.00 41 1012.4
20260509195048 88 230 6.1 15.6 0.00 0.00 0.00 42 1012.3
20260509194556 87 248 7.8 15.6 0.00 0.00 0.00 42 1012.5
20260509194047 87 233 4.3 18.2 0.00 0.00 0.00 43 1012.6
20260509193550 87 250 6.1 18.2 0.00 0.00 0.00 42 1012.7
20260509193056 87 238 11.3 18.2 0.00 0.00 0.00 40 1012.7
20260509192547 87 238 6.1 17.4 0.00 0.00 0.00 43 1012.7
20260509192053 87 207 7.8 17.4 0.00 0.00 0.00 44 1012.8
20260509191552 86 163 7.0 14.8 0.00 0.00 0.00 44 1012.8
20260509191049 86 173 9.6 14.8 0.00 0.00 0.00 46 1013.0
20260509190549 86 234 6.1 13.0 0.00 0.00 0.00 46 1013.1
20260509190054 85 223 7.0 15.6 0.00 0.00 0.00 45 1013.2
20260509185552 85 221 9.6 15.6 0.00 0.00 0.00 47 1013.2
20260509185048 85 236 7.8 14.8 0.00 0.00 0.00 46 1013.2
20260509184555 85 232 7.8 14.8 0.00 0.00 0.00 46 1013.3
20260509184048 85 217 5.2 13.9 0.00 0.00 0.00 47 1013.3
20260509183548 85 227 5.2 13.0 0.00 0.00 0.00 48 1013.4
20260509183109 85 182 7.8 13.0 0.00 0.00 0.00 47 1013.5
20260509182549 84 202 6.1 14.8 0.00 0.00 0.00 48 1013.5
20260509182051 85 160 7.0 14.8 0.00 0.00 0.00 49 1013.5
20260509181554 85 214 7.8 13.9 0.00 0.00 0.00 48 1013.7
20260509181050 84 199 6.1 12.2 0.00 0.00 0.00 50 1013.8
20260509180553 84 279 5.2 12.2 0.00 0.00 0.00 52 1013.6
20260509180056 84 226 7.8 12.2 0.00 0.00 0.00 50 1013.9
20260509175551 84 241 2.6 12.2 0.00 0.00 0.00 51 1013.9
20260509175050 83 171 5.2 12.2 0.00 0.00 0.00 51 1014.0
20260509174556 83 165 6.1 12.2 0.00 0.00 0.00 53 1013.9
20260509174049 83 221 6.1 12.2 0.00 0.00 0.00 53 1014.0
20260509173551 83 165 3.5 12.2 0.00 0.00 0.00 53 1014.1
20260509173102 83 220 4.3 11.3 0.00 0.00 0.00 53 1014.2
20260509172548 82 172 6.1 11.3 0.00 0.00 0.00 54 1014.1
20260509172048 82 223 3.5 8.7 0.00 0.00 0.00 55 1014.2
20260509171558 82 168 5.2 8.7 0.00 0.00 0.00 54 1014.2
20260509171051 82 224 4.3 9.6 0.00 0.00 0.00 55 1014.3
20260509170554 82 216 5.2 10.4 0.00 0.00 0.00 56 1014.4
20260509165551 81 205 4.3 13.0 0.00 0.00 0.00 55 1014.3
20260509165051 81 193 6.1 13.0 0.00 0.00 0.00 57 1014.3
20260509164602 80 223 5.2 12.2 0.00 0.00 0.00 59 1014.3
20260509164051 80 221 5.2 12.2 0.00 0.00 0.00 59 1014.3
20260509163551 80 193 6.1 12.2 0.00 0.00 0.00 60 1014.3
20260509163105 80 234 4.3 12.2 0.00 0.00 0.00 60 1014.1
20260509162551 80 233 7.0 12.2 0.00 0.00 0.00 60 1014.1
20260509162048 79 200 5.2 8.7 0.00 0.00 0.00 61 1014.1
20260509161600 79 232 3.5 8.7 0.00 0.00 0.00 63 1014.1
20260509161051 78 259 3.5 9.6 0.00 0.00 0.00 63 1014.0
20260509160548 78 204 4.3 9.6 0.00 0.00 0.00 65 1014.0
20260509160057 78 191 2.6 6.1 0.00 0.00 0.00 67 1014.1
20260509155551 77 250 1.7 6.1 0.00 0.00 0.00 69 1014.1
20260509155049 77 285 3.5 7.8 0.00 0.00 0.00 69 1014.2
20260509154603 77 230 3.5 7.8 0.00 0.00 0.00 70 1014.3
20260509154050 76 224 2.6 6.1 0.00 0.00 0.00 71 1014.3
20260509153549 76 286 1.7 6.1 0.00 0.00 0.00 71 1014.3
20260509153059 75 242 2.6 6.1 0.00 0.00 0.00 73 1014.4
20260509152550 75 310 1.7 7.0 0.00 0.00 0.00 76 1014.5
20260509152050 74 243 4.3 8.7 0.00 0.00 0.00 75 1014.5
20260509151557 74 253 3.5 8.7 0.00 0.00 0.00 78 1014.5
20260509151050 73 241 1.7 7.0 0.00 0.00 0.00 79 1014.5
20260509150551 73 225 3.5 7.0 0.00 0.00 0.00 79 1014.6
20260509150051 73 234 1.7 6.1 0.00 0.00 0.00 82 1014.7
20260509145550 72 276 2.6 6.1 0.00 0.00 0.00 83 1014.8
20260509145049 71 294 2.6 7.0 0.00 0.00 0.00 84 1014.7
20260509144556 71 221 1.7 7.0 0.00 0.00 0.00 86 1014.8
20260509144048 70 258 0.9 6.1 0.00 0.00 0.00 88 1015.0
20260509143548 70 246 3.5 6.1 0.00 0.00 0.00 88 1015.0
20260509143058 70 265 0.9 3.5 0.00 0.00 0.00 90 1014.9
20260509142549 69 273 0.0 2.6 0.00 0.00 0.00 91 1015.0
20260509142049 69 309 0.9 3.5 0.00 0.00 0.00 92 1015.0
20260509141600 68 336 1.7 3.5 0.00 0.00 0.00 93 1015.0
20260509141050 68 311 0.9 3.5 0.00 0.00 0.00 94 1014.9
20260509140549 68 302 1.7 3.5 0.00 0.00 0.00 95 1014.9
20260509135549 67 0 0.0 1.7 0.00 0.00 0.00 96 1014.8
20260509135051 66 0 0.0 2.6 0.00 0.00 0.00 96 1014.7
20260509134552 66 0 0.0 2.6 0.00 0.00 0.00 97 1014.7
20260509134047 66 0 0.0 2.6 0.00 0.00 0.00 97 1014.7
20260509133547 65 244 0.9 3.5 0.00 0.00 0.00 97 1014.7
20260509133054 65 304 0.0 4.3 0.00 0.00 0.00 97 1014.7
20260509132551 64 238 1.7 6.1 0.00 0.00 0.00 97 1014.6
20260509132047 64 225 2.6 6.1 0.00 0.00 0.00 96 1014.5
20260509131554 63 233 2.6 6.1 0.00 0.00 0.00 96 1014.7
20260509131049 63 232 4.3 6.1 0.00 0.00 0.00 96 1014.5
20260509130549 63 221 2.6 6.1 0.00 0.00 0.00 96 1014.4
20260509130052 62 225 3.5 6.1 0.00 0.00 0.00 96 1014.4
20260509125549 62 231 4.3 6.1 0.00 0.00 0.00 96 1014.3
20260509125049 62 220 2.6 4.3 0.00 0.00 0.00 96 1014.3
20260509124552 62 225 0.9 3.5 0.00 0.00 0.00 96 1014.4
20260509124047 62 265 0.9 4.3 0.00 0.00 0.00 96 1014.4
20260509123549 62 232 3.5 4.3 0.00 0.00 0.00 96 1014.4
20260509123109 62 238 2.6 4.3 0.00 0.00 0.00 95 1014.1
20260509122550 62 232 2.6 3.5 0.00 0.00 0.00 95 1014.1
20260509122048 62 232 0.0 3.5 0.00 0.00 0.00 95 1014.0
20260509121559 62 230 0.9 6.1 0.00 0.00 0.00 95 1014.0
20260509121050 62 203 3.5 7.0 0.00 0.00 0.00 95 1014.1